, AK

(GMT )
Cape Lisburne

Weather History for PALU - July, 2013

Change the Weather History Date:

Monday, July 15, 2013

  Actual Average Record
Temperature  
Mean Temperature 56 °F -  
Max Temperature 61 °F 49 °F 64 °F (2007)
Min Temperature 51 °F 40 °F 21 °F (1996)
Degree Days  
Heating Degree Days 9    
Growing Degree Days 6 (Base 50)    
Moisture  
Dew Point 47 °F    
Average Humidity 74    
Maximum Humidity 81    
Minimum Humidity 58    
Precipitation  
Precipitation 0.00 in - - ()
Sea Level Pressure  
Sea Level Pressure 29.96 in    
Wind  
Wind Speed 17 mph (SSW)    
Max Wind Speed 25 mph    
Max Gust Speed 37 mph    
Visibility 10 miles    
Events      
Averages and records for this station are not official NWS values.
T = Trace of Precipitation, MM = Missing Value Source: NWS Daily Summary

Daily Weather History Graph

Daily Weather History Graph

Search for Another Location

Airport or City:

Trip Planner

Search our weather history database for the weather conditions in past years. The results will help you decide how hot, cold, wet, or windy it might be!

Date:

Astronomy

Jul. 15, 2013 Rise Set
Actual Time 3:42 AM AKDT 2:38 AM AKDT
Civil Twilight Sun does not rise Sun does not rise
Nautical Twilight Sun does not rise Sun does not rise
Astronomical Twilight Sun does not rise Sun does not rise
Moon 4:44 PM AKDT (7/15) 12:53 AM AKDT (7/15)
Length of Visible Light 24h 00m
Length of Day
22h 55m
Waxing Crescent, 47% of the Moon is Illuminated
Jul 15
Waxing Crescent
Jul 15
First Quarter
Jul 22
Full
Jul 29
Last Quarter
Aug 6
New

Hourly Weather History & Observations

Time (AKDT) Temp. Dew Point Humidity Pressure Visibility Wind Dir Wind Speed Gust Speed Precip Events Conditions
12:55 AM 51.4 °F 45.1 °F 79% 29.94 in 10.0 mi SSW 17.3 mph 26.5 mph N/A   Partly Cloudy
1:55 AM 51.8 °F 44.6 °F 76% 29.95 in 10.0 mi South 16.1 mph 23.0 mph N/A   Clear
2:55 AM 52.3 °F 45.1 °F 76% 29.94 in 10.0 mi SSW 19.6 mph 28.8 mph N/A   Clear
3:55 AM 52.2 °F 45.0 °F 76% 29.95 in 10.0 mi SSW 17.3 mph - N/A   Clear
4:55 AM 51.8 °F 45.1 °F 78% 29.96 in 10.0 mi SSW 13.8 mph 21.9 mph N/A   Mostly Cloudy
5:55 AM 52.2 °F 45.7 °F 79% 29.95 in 10.0 mi SSW 13.8 mph 20.7 mph N/A   Scattered Clouds
6:55 AM 52.3 °F 45.9 °F 79% 29.94 in 10.0 mi SSW 20.7 mph 29.9 mph N/A   Mostly Cloudy
7:55 AM 52.5 °F 46.0 °F 79% 29.95 in 10.0 mi SW 13.8 mph 21.9 mph N/A   Partly Cloudy
8:55 AM 52.3 °F 46.6 °F 81% 29.95 in 10.0 mi SSW 11.5 mph 20.7 mph N/A   Clear
9:55 AM 55.0 °F 47.3 °F 75% 29.94 in 10.0 mi SSW 19.6 mph 33.4 mph N/A   Partly Cloudy
10:55 AM 56.5 °F 48.2 °F 74% 29.94 in 10.0 mi SW 23.0 mph 29.9 mph N/A   Mostly Cloudy
11:55 AM 55.4 °F 48.2 °F 77% 29.96 in 10.0 mi SSW 25.3 mph 29.9 mph N/A   Scattered Clouds
12:55 PM 54.5 °F 47.8 °F 78% 29.97 in 10.0 mi SSW 23.0 mph 31.1 mph N/A   Overcast
1:55 PM 53.8 °F 47.3 °F 79% 29.98 in 10.0 mi SSW 25.3 mph 36.8 mph N/A   Mostly Cloudy
2:55 PM 56.1 °F 47.1 °F 72% 29.97 in 10.0 mi SSW 25.3 mph 36.8 mph N/A   Overcast
3:55 PM 57.6 °F 46.6 °F 67% 29.98 in 10.0 mi South 15.0 mph 23.0 mph N/A   Clear
4:55 PM 56.8 °F 47.8 °F 72% 29.98 in 10.0 mi SSW 19.6 mph 27.6 mph N/A   Partly Cloudy
5:55 PM 57.7 °F 48.2 °F 70% 29.98 in 10.0 mi WSW 16.1 mph 25.3 mph N/A   Mostly Cloudy
6:55 PM 59.0 °F 47.3 °F 65% 29.98 in 10.0 mi SSW 13.8 mph 19.6 mph N/A   Partly Cloudy
7:55 PM 60.4 °F 47.3 °F 62% 29.97 in 10.0 mi South 9.2 mph 17.3 mph N/A   Partly Cloudy
8:55 PM 61.5 °F 46.4 °F 58% 29.97 in 10.0 mi South 10.4 mph 17.3 mph N/A   Clear
9:55 PM 55.9 °F 48.9 °F 77% 29.97 in 10.0 mi SW 15.0 mph - N/A   Mostly Cloudy
10:55 PM 56.7 °F 48.6 °F 74% 29.97 in 10.0 mi SSW 11.5 mph - N/A   Mostly Cloudy
11:55 PM 55.0 °F 49.1 °F 80% 29.97 in 10.0 mi SE 4.6 mph - N/A   Mostly Cloudy